"Pseudo-MPEC" for P10IjMU

Created 2018 Jul 13 23:18:13 UT using Find_Orb

Click here for an explanation of pseudo-MPECs

 
 Astrometry: 
     P10IjMU  C2018 06 18tMAstrometryV`G3WHJ6*5,ctOXlTeYI/`KGBLXj_a`4r.8bl'IVF51
     P10IjMU  C2018 06 18UK+gq9RQc7h=3:OW;4XVuF(]^jP@9,u?k=6*ogGeYi(F*W$yl6UAF51
     P10IjMU  C2018 06 18\7Xt'.:unjn_-*DVLEB_5J+s\cr(y'I['VyjJt^:hx!MvXSuT80$F51
     P10IjMU  C2018 06 18C):aUB`\EvT',TqV(/KKaLx]^+Y8CCq@'e'\.BsSMZJ[+d;+5Xg:F51
     P10IjMU  C2018 07 10prMc;p45Qy=ha_a;#hO'J[-hv9#RKjlub?8WjLlAc/gJ(YmX`qmHF51
     P10IjMU  C2018 07 10_i;bAf,h;naT%QZqM`5\(7a0qTBWK5%0XtLT:XBV)d+5DVb_kxg)F51
     P10IjMU  C2018 07 109QTmNer=E\v?.*Z@Lredacted;6F/+xxb`]-9$6RVD*0LGU/wt='F51
     P10IjMU  C2018 07 10T8SD^=xD;w,V4mI9^Uo(/S8\mkxBbYvgu9*s]yJC/_62RNhGWwToF51
     P10IjMU |C2018 07 113.=$,_A@5A-047*KjTHTm_fE3TFD,:?/1xop?5+:BO3$TIXHbDmO807
     P10IjMU |C2018 07 11S:N9nh2#S0sIOb.D+JsJMvYP.'l-Nv`BJS78e:kvgn%PI5'vS+$*807
     P10IjMU |C2018 07 11dT8E!Etw_pG8-9$^TCRYs.]b5Ypu7_F8_G83DQ)kjk^HmBjN[\rL807
     P10IjMU |C2018 07 13,vGCv`iiy6[242Ya=$._x3J4CPtsQp7a9kRt#f`sF=ZcAh#HAj]:807
     P10IjMU |C2018 07 13,ZD'Tuy$g`=Xlk[YQ/Yniv62y8SD068Ksee]w%Xv)y7FW)kmBu7E807
     P10IjMU |C2018 07 13L'W%sdI)UbEEC_WshW0hhnY5d!7`l7fMHkF3;OB#uHr-YEOjV=Y$807
     P10IjMU KC2018 07 13Pnh+`(RQn%y:LfU!.2P0hHqGnFl$=%\GsJS3-+U0o\^J8G6hW$k)H21
     P10IjMU KC2018 07 139OrqGwSnJW!8d,V@qN5-g:E4*4E/%NirXaiY8BMbS)518`_MnLA9H21
     P10IjMU KC2018 07 13:L'`5`h$X?GYWCa?wjtoY+-@D4hqV'e\/KqI:O(nn)NKM5D$Ys8#H21
     P10IjMU  C2018 07 132:MJ(8`kdWnX`vLTTY-C$ev^;'2(O]dACU+U#=oDJZx)ABa,x^D9T12
     P10IjMU  C2018 07 138bAnt#w1g/vJyA3Se]3A.:(:8@^,X'Lu*I`qhoGl3F3!S^gNEOCPT12

Station data:
(807) Cerro Tololo Observatory, La Serena  (S30.169136 W70.805900)  Chile.
   1.5-m Ritchey-Chrétien.
(F51) Pan-STARRS 1, Haleakala  (N20.707235 W156.255910)  US/Hawaii.
   Observers N. Primak, A. Schultz, S. Watters, J. Thiel, T. Goggia. Measurer
   PS1 Science Consortium. 1.8-m Ritchey-Chrétien + CCD.
(H21) Astronomical Research Observatory, Westfield  (N39.483057 W87.968270)
   US/Illinois. 0.76-m f/3.0 astrograph + CCD.
(T12) Mauna Kea-UH/Tholen NEO Follow-Up (2.24-m)  (N19.822991 W155.469434)
   US/Hawaii.  Observers D. Fohring, D. Hung, Y. Ramanjooloo, Z. Claytor, D.
   J. Tholen. 2.24-m University of Hawaii reflector.

Orbital elements:  P10IjMU
   Perihelion 2019 Jun 24.840954 +/- 0.695 TT = 20:10:58 (JD 2458659.340954)
Epoch 2018 Jul 13.0 TT = JDT 2458312.5   Earth MOID: 0.7715   AutoNEOCP
M 279.23003 +/- 0.26                (J2000 ecliptic)
n   0.23287321 +/- 0.000312         Peri.  244.10443 +/- 0.16
a   2.61651373 +/- 0.00234          Node   136.04682 +/- 0.021
e   0.3413117 +/- 0.000595          Incl.   13.57780 +/- 0.0044
P   4.23                   H 18.0   G  0.15   U  7.4  
q 1.72346691 +/- 0.000177    Q 3.50956055 +/- 0.00469
From 19 observations 2018 June 18-July 13; mean residual 0".09
Residuals in arcseconds: 
180618 F51  .05+  .02+    180710 F51  .18+  .01+    180713 H21  .18-  .13-    
180618 F51  .02+  .02-    180711 807  .27-  .01+    180713 H21  .11-  .22-    
180618 F51  .00   .04+    180711 807  .06-  .03-    180713 H21  .00   .16+    
180618 F51  .07-  .04-    180711 807  .06+  .01-    180713 T12  .04+  .00     
180710 F51  .02-  .03+    180713 807  .09+  .09-    180713 T12  .03-  .01+    
180710 F51  .08+  .09-    180713 807  .01-  .04-    
180710 F51  .02-  .09+    180713 807  .13+  .05+    

Ephemerides (geocentric):
Date (UTC) HH   RA              Dec         delta   r     elong  mag " sig PA
---- -- -- --  -------------   -----------  ------ ------ -----  --- ---- ---
2018 07 13 23  16 30 21.283   -06 00 17.58  1.9696 2.7688 133.4 22.5  .06 161
2018 07 14 00  16 30 20.012   -06 00 30.46  1.9698 2.7687 133.4 22.5  .07 161
2018 07 14 01  16 30 18.742   -06 00 43.35  1.9701 2.7685 133.4 22.5  .07 161
2018 07 14 02  16 30 17.476   -06 00 56.26  1.9703 2.7684 133.3 22.5  .07 161
2018 07 14 03  16 30 16.212   -06 01 09.17  1.9705 2.7682 133.3 22.5  .08 161
2018 07 14 04  16 30 14.950   -06 01 22.10  1.9708 2.7681 133.2 22.5  .08 160
2018 07 14 05  16 30 13.691   -06 01 35.04  1.9710 2.7680 133.2 22.5  .08 160
2018 07 14 06  16 30 12.434   -06 01 47.99  1.9713 2.7678 133.2 22.5  .09 160
2018 07 14 07  16 30 11.180   -06 02 00.95  1.9715 2.7677 133.1 22.5  .09 160
2018 07 14 08  16 30 09.929   -06 02 13.92  1.9717 2.7675 133.1 22.5  .09 160
2018 07 14 09  16 30 08.680   -06 02 26.91  1.9720 2.7674 133.0 22.5  .10 160
2018 07 14 10  16 30 07.433   -06 02 39.90  1.9722 2.7673 133.0 22.5  .10 160
2018 07 14 11  16 30 06.189   -06 02 52.91  1.9725 2.7671 133.0 22.5  .10 160
2018 07 14 12  16 30 04.948   -06 03 05.93  1.9727 2.7670 132.9 22.5  .11 160
2018 07 14 13  16 30 03.709   -06 03 18.96  1.9729 2.7668 132.9 22.5  .11 160
2018 07 14 14  16 30 02.472   -06 03 32.00  1.9732 2.7667 132.8 22.5  .11 160
2018 07 14 15  16 30 01.238   -06 03 45.06  1.9734 2.7665 132.8 22.5  .12 160
2018 07 14 16  16 30 00.007   -06 03 58.12  1.9737 2.7664 132.8 22.5  .12 160
2018 07 14 17  16 29 58.778   -06 04 11.20  1.9739 2.7663 132.7 22.5  .12 160
2018 07 14 18  16 29 57.552   -06 04 24.28  1.9742 2.7661 132.7 22.5  .13 160
2018 07 14 19  16 29 56.328   -06 04 37.38  1.9744 2.7660 132.6 22.5  .13 160
2018 07 14 20  16 29 55.107   -06 04 50.49  1.9746 2.7658 132.6 22.5  .13 160
2018 07 14 21  16 29 53.888   -06 05 03.62  1.9749 2.7657 132.6 22.5  .14 159
2018 07 14 22  16 29 52.672   -06 05 16.75  1.9751 2.7656 132.5 22.5  .14 159
2018 07 14 23  16 29 51.458   -06 05 29.90  1.9754 2.7654 132.5 22.5  .14 159
2018 07 15 00  16 29 50.247   -06 05 43.05  1.9756 2.7653 132.4 22.5  .15 159
2018 07 15 01  16 29 49.038   -06 05 56.22  1.9759 2.7651 132.4 22.5  .15 159
2018 07 15 02  16 29 47.832   -06 06 09.40  1.9761 2.7650 132.4 22.5  .15 159
2018 07 15 03  16 29 46.629   -06 06 22.59  1.9764 2.7649 132.3 22.5  .16 159
2018 07 15 04  16 29 45.428   -06 06 35.79  1.9766 2.7647 132.3 22.5  .16 159
2018 07 15 05  16 29 44.229   -06 06 49.00  1.9769 2.7646 132.2 22.5  .16 159
2018 07 15 06  16 29 43.033   -06 07 02.23  1.9771 2.7644 132.2 22.5  .17 159
2018 07 15 07  16 29 41.840   -06 07 15.46  1.9774 2.7643 132.2 22.5  .17 159
2018 07 15 08  16 29 40.649   -06 07 28.71  1.9776 2.7642 132.1 22.5  .17 159
2018 07 15 09  16 29 39.461   -06 07 41.97  1.9778 2.7640 132.1 22.5  .18 159
2018 07 15 10  16 29 38.275   -06 07 55.24  1.9781 2.7639 132.0 22.5  .18 159
2018 07 15 11  16 29 37.092   -06 08 08.52  1.9783 2.7637 132.0 22.5  .19 159
2018 07 15 12  16 29 35.912   -06 08 21.81  1.9786 2.7636 132.0 22.5  .19 159
2018 07 15 13  16 29 34.733   -06 08 35.11  1.9788 2.7634 131.9 22.5  .19 159
2018 07 15 14  16 29 33.558   -06 08 48.43  1.9791 2.7633 131.9 22.5  .20 159
2018 07 15 15  16 29 32.385   -06 09 01.75  1.9793 2.7632 131.8 22.5  .20 158
2018 07 15 16  16 29 31.215   -06 09 15.09  1.9796 2.7630 131.8 22.5  .20 158
2018 07 15 17  16 29 30.047   -06 09 28.44  1.9798 2.7629 131.8 22.5  .21 158
2018 07 15 18  16 29 28.882   -06 09 41.80  1.9801 2.7627 131.7 22.5  .21 158
2018 07 15 19  16 29 27.719   -06 09 55.17  1.9803 2.7626 131.7 22.5  .21 158
2018 07 15 20  16 29 26.559   -06 10 08.55  1.9806 2.7625 131.6 22.5  .22 158
2018 07 15 21  16 29 25.401   -06 10 21.94  1.9808 2.7623 131.6 22.5  .22 158
2018 07 15 22  16 29 24.246   -06 10 35.34  1.9811 2.7622 131.6 22.5  .23 158